This is the latest recevied weather packets stored in our database for station/object KB1JLI. If no packets are shown the sender has not sent any weather packets the latest 10 day(s).
| Time | Temp. | Humidity | Pressure | Rain* | Wind** | Luminosity | Snow |
|---|---|---|---|---|---|---|---|
| 1777691033 | 6.67° C | 74% | 1011.8 hPa | 0 mm | - | 0 W/m² | - |
| 1777690730 | 6.67° C | 75% | 1011.6 hPa | 0 mm | - | 0 W/m² | - |
| 1777690427 | 6.67° C | 74% | 1011.8 hPa | 0 mm | - | 0 W/m² | - |
| 1777690125 | 7.22° C | 74% | 1011.8 hPa | 0 mm | - | 0 W/m² | - |
| 1777689823 | 6.11° C | 70% | 1011.7 hPa | 0 mm | - | 0 W/m² | - |
| 1777689520 | 6.67° C | 68% | 1011.6 hPa | 0 mm | - | 0 W/m² | - |
| 1777689218 | 6.67° C | 67% | 1011.7 hPa | 0 mm | - | 0 W/m² | - |
| 1777688916 | 6.67° C | 66% | 1011.6 hPa | 0 mm | - | 0 W/m² | - |
| 1777688612 | 6.67° C | 66% | 1011.6 hPa | 0 mm | - | 0 W/m² | - |
| 1777688309 | 6.67° C | 65% | 1011.6 hPa | 0 mm | - | 0 W/m² | - |
| 1777688006 | 7.22° C | 63% | 1011.6 hPa | 0 mm | - | 0 W/m² | - |
| 1777687703 | 6.67° C | 63% | 1011.7 hPa | 0 mm | - | 0 W/m² | - |
| 1777687401 | 7.22° C | 61% | 1011.6 hPa | 0 mm | - | 0 W/m² | - |
| 1777687098 | 7.22° C | 62% | 1011.5 hPa | 0 mm | - | 0 W/m² | - |
| 1777686795 | 7.22° C | 62% | 1011.6 hPa | 0 mm | - | 0 W/m² | - |
| 1777686492 | 7.78° C | 61% | 1011.7 hPa | 0 mm | - | 0 W/m² | - |
| 1777686189 | 7.78° C | 60% | 1011.6 hPa | 0 mm | - | 0 W/m² | - |
| 1777685885 | 7.78° C | 59% | 1011.6 hPa | 0 mm | - | 0 W/m² | - |
| 1777685580 | 7.78° C | 60% | 1011.5 hPa | 0 mm | - | 0 W/m² | - |
| 1777685277 | 8.33° C | 58% | 1011.7 hPa | 0 mm | - | 0 W/m² | - |
| 1777684975 | 8.33° C | 58% | 1011.6 hPa | 0 mm | - | 0 W/m² | - |
| 1777684672 | 8.33° C | 55% | 1011.5 hPa | 0 mm | - | 0 W/m² | - |
| 1777684368 | 8.89° C | 57% | 1011.4 hPa | 0 mm | - | 0 W/m² | - |
| 1777684066 | 8.89° C | 55% | 1011.4 hPa | 0 mm | - | 0 W/m² | - |
| 1777683762 | 8.89° C | 54% | 1011.4 hPa | 0 mm | - | 0 W/m² | - |
* Rain latest hour (hover to see other rain measurements)
** Current wind speed in m/s (hover to see current wind gust speed)